Hourly Data Report for September 18, 2017

All times are specified in Local Standard Time (LST). Add 1 hour to adjust for Daylight Saving Time where and when it is observed.

KITCHENER/WATERLOO
ONTARIO

43°27'39.000" N
80°22'43.000" W
321.60 m
6144239
71368
YKF

Download Data

Hourly Data (September 2017)
Hourly Data Report for September 18, 2017
Temp Definition
°C
Dew Point Temp Definition
°C
Rel Hum Definition
%
Wind Dir Definition
10's deg

Wind Spd Definition
km/h
Visibility Definition
km
Stn Press Definition
kPa
Hmdx Definition


Wind Chill Definition


Weather Definition


TIME
00:00 Legend Double Dagger 13.7 13.6 99 11 5 4.8 98.08     Fog
01:00 Legend Double Dagger 13.6 13.5 99   0 0.2 98.07     Fog
02:00 Legend Double Dagger 11.0 10.9 99 8 4 0.2 98.04     Fog
03:00 Legend Double Dagger 12.4 12.3 99 9 4 6.4 98.02     Fog
04:00 Legend Double Dagger 12.0 11.9 99   0 1.2 98.02     Fog
05:00 Legend Double Dagger 12.6 12.5 99 8 8 2.8 98.03     Fog
06:00 Legend Double Dagger 12.8 12.7 99 6 5 6.4 98.07     Fog
07:00 Legend Double Dagger 16.1 16.0 99 14 4 9.7 98.05     Fog
08:00 Legend Double Dagger 18.5 18.2 98 14 5 16.1 98.07     LegendNANA
09:00 Legend Double Dagger 22.9 18.6 76 19 8 16.1 98.05 29   LegendNANA
10:00 Legend Double Dagger 25.4 17.1 60 20 11 16.1 98.05 31   LegendNANA
11:00 Legend Double Dagger 26.2 16.9 56 LegendMM 13 16.1 98.06 31   LegendNANA
12:00 Legend Double Dagger 27.1 17.1 54 20 13 16.1 98.04 32   LegendNANA
13:00 Legend Double Dagger 27.6 16.8 51 21 18 16.1 97.99 33   LegendNANA
14:00 Legend Double Dagger 27.6 16.2 49 19 17 16.1 97.95 32   LegendNANA
15:00 Legend Double Dagger 27.4 16.3 50 20 21 16.1 97.94 32   LegendNANA
16:00 Legend Double Dagger 24.2 19.6 75 32 15 16.1 97.93 31   LegendNANA
17:00 Legend Double Dagger 22.7 19.1 80 31 15 11.3 97.93 30   LegendNANA
18:00 Legend Double Dagger 21.7 18.9 84 33 9 11.3 97.96 28   LegendNANA
19:00 Legend Double Dagger 20.6 18.8 89 30 9 9.7 97.99 27   Fog
20:00 Legend Double Dagger 20.0 18.6 91 33 5 9.7 98.00 26   Fog
21:00 Legend Double Dagger 19.6 18.3 92 33 5 16.1 98.00     LegendNANA
22:00 Legend Double Dagger 18.8 17.8 94 LegendMM 4 16.1 98.00     LegendNANA
23:00 Legend Double Dagger 18.0 17.4 96 28 4 16.1 98.00     LegendNANA

Notes on Data Quality.

Legend

  • E = Estimated
  • M = Missing
  • NA = Not Available
  • ‡ = Partner data that is not subject to review by the National Climate Archives
Date modified: